KF6RAL-6 Weather Reports


Display with metric or nautical units.
time (UTC)temp
F
wind
direction
speed
MPH
gust
MPH
rain 1hr
in
rain 24hr
in
rain mn
in
humidity
%
barometer
mb
20171021140738 0 227 2.0 8.0 0.00 1.70 0.00 1019.7
20171021140039 0 249 3.0 8.0 0.00 1.70 0.00 1019.5
20171021135337 0 253 1.0 7.0 0.00 1.70 0.00 1019.4
20171021134635 0 231 3.0 7.0 0.00 1.71 0.00 1019.4
20171021133934 0 244 4.0 10.0 0.00 1.74 0.00 1019.2
20171021133233 0 244 6.0 10.0 0.00 1.79 0.00 1019.2
20171021132533 0 234 4.0 7.0 0.00 1.80 0.00 1019.1
20171021131832 0 237 4.0 7.0 0.00 1.80 0.00 1018.9
20171021131130 0 228 3.0 7.0 0.00 1.84 0.00 1018.9
20171021130429 0 239 5.0 7.0 0.00 1.84 0.00 1018.9
20171021125728 0 242 3.0 6.0 0.00 1.84 0.00 1018.8
20171021124326 0 247 3.0 7.0 0.00 1.87 0.00 1018.5
20171021123625 0 217 2.0 9.0 0.00 1.87 0.00 1018.3
20171021122924 0 223 4.0 9.0 0.00 1.87 0.00 1018.2
20171021122222 0 228 3.0 8.0 0.00 1.87 0.00 1018.2
20171021121522 0 223 3.0 7.0 0.00 1.88 0.00 1018.2
20171021120820 0 243 4.0 9.0 0.00 1.88 0.00 1018.3
20171021120120 0 225 4.0 9.0 0.00 1.88 0.00 1018.4
20171021115418 0 246 6.0 10.0 0.00 1.88 0.00 1018.2
20171021114718 0 238 6.0 10.0 0.00 1.92 0.00 1018.0
20171021114016 0 234 4.0 9.0 0.00 1.93 0.00 1017.9
20171021113315 0 216 4.0 11.0 0.00 1.93 0.00 1017.9
20171021112617 0 221 5.0 11.0 0.00 1.93 0.00 1017.9
20171021111913 0 228 3.0 7.0 0.00 1.93 0.00 1017.9
20171021111213 0 232 4.0 9.0 0.00 1.95 0.00 1017.7
20171021110511 0 234 3.0 7.0 0.00 1.95 0.00 1017.7
20171021105810 0 222 4.0 10.0 0.00 1.95 0.00 1017.6
20171021105109 0 220 3.0 10.0 0.00 1.95 0.00 1017.5
20171021104408 0 223 5.0 9.0 0.00 1.97 0.00 1017.5
20171021103707 0 234 4.0 8.0 0.00 1.97 0.00 1017.4
20171021103006 0 246 4.0 8.0 0.00 1.98 0.00 1017.4
20171021102305 0 214 2.0 9.0 0.00 1.99 0.00 1017.0
20171021101605 0 230 3.0 10.0 0.00 2.03 0.00 1017.0
20171021100903 0 218 3.0 10.0 0.00 2.04 0.00 1016.9
20171021100202 0 230 3.0 10.0 0.00 2.04 0.00 1016.9
20171021095501 0 229 4.0 10.0 0.00 2.06 0.00 1016.8
20171021094800 0 246 5.0 9.0 0.00 2.06 0.00 1016.7
20171021094059 0 244 4.0 7.0 0.00 2.06 0.00 1016.7
20171021093358 0 0 0.0 7.0 0.00 2.07 0.00 1016.6
20171021092657 0 0 0.0 11.0 0.00 2.07 0.00 1016.5
20171021091957 0 216 5.0 10.0 0.00 2.07 0.00 1016.5
20171021091255 0 255 3.0 7.0 0.00 2.08 0.00 1016.5
20171021090554 0 246 3.0 10.0 0.00 2.11 0.00 1016.3
20171021085854 0 243 6.0 12.0 0.00 2.11 0.00 1016.3
20171021085152 0 243 6.0 11.0 0.00 2.11 0.00 1016.2
20171021084451 0 242 5.0 11.0 0.00 2.12 0.00 1016.1
20171021083750 0 231 6.0 16.0 0.00 2.13 0.00 1016.2
20171021083051 0 240 9.0 16.0 0.00 2.13 0.00 1016.1
20171021082348 0 224 5.0 11.0 0.00 2.13 0.00 1016.0
20171021081647 0 237 7.0 10.0 0.00 2.13 0.00 1016.1
20171021080946 0 234 6.0 16.0 0.00 2.14 0.00 1016.0
20171021080245 0 243 10.0 17.0 0.00 2.14 0.00 1016.0
20171021075544 0 242 11.0 17.0 0.00 2.14 0.00 1016.0
20171021074844 0 242 13.0 17.0 0.00 2.16 0.00 1015.8
20171021074144 0 250 7.0 17.0 0.00 2.16 0.00 1015.6
20171021073441 0 265 7.0 17.0 0.00 2.17 0.00 1015.6
20171021072740 0 224 8.0 19.0 0.00 2.17 0.00 1015.5
20171021072040 0 233 9.0 17.0 0.00 2.17 0.00 1015.4
20171021071340 0 241 8.0 14.0 0.00 2.18 0.00 1015.3
20171021070637 0 245 6.0 10.0 0.00 2.18 0.00 1015.3
20171021065936 0 246 3.0 11.0 0.00 2.18 0.00 1015.4
20171021065235 0 263 3.0 10.0 0.00 2.19 0.00 1015.2
20171021064534 0 263 6.0 10.0 0.00 2.22 0.00 1015.1
20171021063833 0 264 3.0 8.0 0.00 2.22 2.22 1015.1
20171021063132 0 277 2.0 6.0 0.00 2.23 2.22 1014.9
20171021062431 0 0 0.0 0.0 0.00 2.27 2.22 1015.0
20171021061730 0 0 0.0 0.0 0.01 2.28 2.22 1015.0
20171021061029 0 0 0.0 0.0 0.01 2.30 2.22 1014.9
20171021060328 0 0 0.0 0.0 0.01 2.33 2.22 1014.8
20171021055627 0 0 0.0 6.0 0.01 2.34 2.22 1014.7
20171021054926 0 301 1.0 7.0 0.01 2.35 2.22 1014.6
20171021054225 0 298 2.0 11.0 0.01 2.35 2.22 1014.5
20171021052823 0 309 5.0 13.0 0.01 2.35 2.22 1014.5
20171021052124 0 328 6.0 13.0 0.01 2.35 2.22 1014.3
20171021051421 0 309 5.0 14.0 0.00 2.35 2.22 1014.3
20171021050720 0 276 10.0 14.0 0.00 2.35 2.22 1013.9
20171021050022 0 288 10.0 17.0 0.00 2.35 2.22 1014.0
20171021045318 0 282 12.0 16.0 0.00 2.35 2.22 1013.9
20171021044617 0 288 11.0 16.0 0.00 2.35 2.22 1013.8
20171021043916 0 281 10.0 16.0 0.00 2.35 2.22 1013.7
20171021043215 0 281 10.0 18.0 0.00 2.35 2.22 1013.6
20171021042514 0 270 14.0 18.0 0.00 2.35 2.22 1013.6
20171021041813 0 281 14.0 19.0 0.00 2.35 2.22 1013.6
20171021041112 0 297 11.0 16.0 0.00 2.35 2.22 1013.6
20171021040411 0 281 11.0 16.0 0.00 2.35 2.22 1013.2
20171021035711 0 278 12.0 18.0 0.00 2.35 2.22 1013.1
20171021035009 0 280 14.0 18.0 0.00 2.35 2.22 1013.1
20171021034309 0 279 11.0 18.0 0.00 2.35 2.22 1013.0
20171021033607 0 267 14.0 18.0 0.00 2.35 2.22 1012.8
20171021032906 0 273 13.0 18.0 0.00 2.35 2.22 1012.9
20171021032205 0 278 13.0 18.0 0.00 2.35 2.22 1012.8
20171021031505 0 280 12.0 18.0 0.00 2.35 2.22 1012.9
20171021030803 0 290 10.0 18.0 0.00 2.35 2.22 1012.7
20171021030104 0 277 13.0 18.0 0.00 2.35 2.22 1012.7
20171021025401 0 280 14.0 19.0 0.00 2.35 2.22 1012.6
20171021024000 0 297 10.0 16.0 0.00 2.35 2.22 1012.5
20171021023258 0 284 9.0 15.0 0.00 2.35 2.22 1012.4
20171021022557 0 289 8.0 16.0 0.00 2.35 2.22 1012.3
20171021021856 0 291 10.0 16.0 0.00 2.35 2.22 1012.2
20171021021155 0 294 12.0 19.0 0.00 2.35 2.22 1012.1
20171021020454 0 281 10.0 17.0 0.00 2.35 2.22 1012.0
20171021015753 0 295 11.0 18.0 0.00 2.35 2.22 1011.8
20171021015052 0 302 9.0 17.0 0.00 2.35 2.22 1011.8
20171021014351 0 296 11.0 16.0 0.00 2.35 2.22 1011.6
20171021013650 0 296 9.0 16.0 0.00 2.35 2.22 1011.6
20171021012949 0 300 10.0 16.0 0.00 2.35 2.22 1011.3
20171021012248 0 294 8.0 18.0 0.00 2.35 2.22 1011.2
20171021011547 0 295 12.0 18.0 0.00 2.35 2.22 1011.3
20171021010845 0 302 11.0 18.0 0.00 2.35 2.22 1011.2
20171021010144 0 295 9.0 14.0 0.00 2.35 2.22 1011.1
20171021005443 0 306 7.0 15.0 0.00 2.35 2.22 1011.1
20171021004744 0 304 9.0 17.0 0.00 2.35 2.22 1011.0
20171021004042 0 283 10.0 15.0 0.00 2.35 2.22 1010.9
20171021003342 0 281 10.0 19.0 0.00 2.35 2.22 1010.8
20171021002639 0 282 15.0 18.0 0.00 2.35 2.22 1010.7
20171021001938 0 291 12.0 17.0 0.00 2.35 2.22 1010.5
20171021001237 0 292 7.0 13.0 0.00 2.35 2.22 1010.4
20171021000536 0 300 7.0 17.0 0.00 2.35 2.22 1010.3
20171020235835 0 310 8.0 17.0 0.00 2.35 2.22 1010.4
20171020235134 0 303 7.0 16.0 0.00 2.35 2.22 1010.5
20171020234433 0 294 11.0 16.0 0.00 2.35 2.22 1010.3
20171020233733 0 295 9.0 15.0 0.00 2.35 2.22 1010.1
20171020233032 0 306 5.0 13.0 0.00 2.35 2.22 1010.1
20171020232330 0 302 5.0 12.0 0.01 2.35 2.22 1010.1
20171020231629 0 299 4.0 11.0 0.02 2.35 2.22 1010.0
20171020230928 0 295 5.0 11.0 0.02 2.35 2.22 1009.9
20171020230227 0 282 4.0 12.0 0.02 2.35 2.22 1009.9
20171020225526 0 287 9.0 13.0 0.02 2.35 2.22 1010.0
20171020224825 0 293 8.0 11.0 0.02 2.35 2.22 1010.0
20171020224125 0 303 4.0 14.0 0.02 2.35 2.22 1010.0
20171020223423 0 302 6.0 14.0 0.02 2.35 2.22 1010.1
20171020222722 0 298 5.0 14.0 0.01 2.35 2.22 1009.9
20171020222021 0 304 7.0 15.0 0.01 2.35 2.22 1009.8
20171020221320 0 302 6.0 15.0 0.00 2.35 2.22 1009.9
20171020220619 0 298 9.0 15.0 0.00 2.35 2.22 1009.8
20171020215918 0 295 8.0 16.0 0.01 2.35 2.22 1010.0
20171020215217 0 294 8.0 15.0 0.01 2.35 2.22 1009.9
20171020214517 0 302 7.0 15.0 0.01 2.35 2.22 1009.8
20171020213815 0 299 10.0 15.0 0.01 2.35 2.22 1009.6
20171020213114 0 290 3.0 10.0 0.01 2.35 2.22 1009.2
20171020212413 0 268 6.0 10.0 0.01 2.35 2.22 1009.4
20171020211714 0 276 5.0 21.0 0.01 2.35 2.22 1009.4
20171020211011 0 268 13.0 21.0 0.04 2.35 2.22 1009.6
20171020210311 0 242 14.0 24.0 0.04 2.35 2.22 1009.5
20171020205610 0 239 15.0 21.0 0.03 2.35 2.21 1009.2
20171020204910 0 274 15.0 20.0 0.03 2.35 2.21 1008.6
20171020204208 0 281 16.0 20.0 0.03 2.35 2.21 1008.6
20171020203507 0 278 13.0 18.0 0.06 2.35 2.21 1008.5
20171020202104 0 240 15.0 20.0 0.06 2.35 2.21 1007.9
20171020201404 0 242 15.0 21.0 0.03 2.35 2.21 1007.8
20171020200702 0 251 9.0 18.0 0.03 2.35 2.21 1007.6
20171020200001 0 270 14.0 22.0 0.03 2.35 2.21 1007.5
20171020195301 0 277 15.0 22.0 0.03 2.35 2.21 1007.0
20171020194600 0 254 14.0 33.0 0.03 2.35 2.21 1007.0
20171020193858 0 240 27.0 33.0 0.01 2.34 2.21 1006.8
20171020193157 0 255 9.0 19.0 0.00 2.34 2.21 1006.6
20171020192456 0 261 14.0 19.0 0.01 2.34 2.21 1006.4
20171020191755 0 284 14.0 18.0 0.03 2.34 2.21 1006.6
20171020191054 0 290 12.0 18.0 0.03 2.34 2.21 1006.6
20171020190353 0 285 12.0 18.0 0.04 2.34 2.21 1006.3
20171020185652 0 282 15.0 18.0 0.04 2.34 2.21 1006.6
20171020184951 0 273 11.0 17.0 0.07 2.34 2.21 1007.1
20171020184250 0 276 12.0 22.0 0.10 2.34 2.21 1007.2
20171020183550 0 272 15.0 28.0 0.11 2.34 2.21 1006.7
20171020182849 0 273 20.0 28.0 0.10 2.34 2.21 1005.9
20171020182148 0 264 17.0 22.0 0.08 2.34 2.21 1005.7
20171020181446 0 257 14.0 24.0 0.08 2.34 2.21 1006.1
20171020180745 0 273 15.0 25.0 0.84 2.34 2.21 1006.1
20171020180044 0 274 19.0 33.0 1.20 2.34 2.20 1004.9
20171020175343 0 281 22.0 40.0 1.88 2.34 2.20 1003.8
20171020174642 0 294 26.0 40.0 2.01 2.34 2.20 1003.2
20171020173941 0 277 27.0 39.0 2.91 2.33 2.20 1002.0
20171020173240 0 252 13.0 29.0 3.95 2.33 2.20 1001.2
20171020172539 0 240 22.0 33.0 5.58 2.33 2.20 1001.0
20171020171838 0 231 24.0 33.0 5.95 2.33 2.20 1001.2
20171020171138 0 195 20.0 33.0 6.41 2.30 2.16 1001.0
20171020170436 0 217 12.0 43.0 6.55 2.23 2.10 1001.0
20171020165735 0 184 13.0 33.0 7.66 2.19 2.05 1001.1
20171020165034 0 180 6.0 31.0 8.16 2.15 2.02 1001.0
20171020164333 0 186 18.0 40.0 9.37 2.11 1.98 1001.1
20171020163632 0 202 20.0 36.0 9.52 1.99 1.85 1000.6
20171020162931 0 180 17.0 39.0 8.88 1.86 1.73 1000.5
20171020161529 0 169 17.0 44.0 8.08 1.70 1.57 1000.2
20171020160828 0 200 23.0 41.0 7.62 1.63 1.50 1000.3
20171020155426 0 184 25.0 51.0 6.26 1.42 1.29 999.6
20171020154725 0 192 27.0 55.0 5.20 1.25 1.11 999.8
20171020154024 0 137 16.0 51.0 3.90 1.09 9.62 999.6
20171020153323 0 226 20.0 42.0 3.06 1.00 8.68 999.4
20171020152622 0 191 18.0 42.0 3.03 9.80 8.45 999.5
20171020151921 0 219 20.0 42.0 2.74 9.36 8.01 999.3
20171020151220 0 256 12.0 32.0 2.23 8.87 7.50 999.3
20171020150518 0 215 9.0 40.0 1.84 8.36 6.99 999.3
20171020145819 0 0 0.0 40.0 1.62 8.14 6.77 999.1
20171020145117 0 228 16.0 41.0 1.00 7.48 6.11 998.9
20171020144416 0 246 21.0 45.0 1.06 7.20 5.83 999.0
20171020143716 0 228 19.0 51.0 1.35 7.03 5.66 998.4
20171020143013 0 224 25.0 51.0 1.35 6.99 5.62 998.5
20171020142312 0 217 18.0 28.0 1.15 6.70 5.33 998.5
20171020141613 0 253 3.0 16.0 1.23 6.64 5.27 998.5